Location: Newark
(55.7681°N, 37.7103°E)
Time: 08:34:41
(UTC+00:00)

XW-2D - Visible Passes

Search period start: 15 December 2019 00:00
Search period end: 25 December 2019 00:00
Orbit: 509 x 526 km, 97.5° (Epoch: 15 December)

Date Brightness Start Highest point End Pass type
(mag) Time Alt. Az. Time Alt. Az. Time Alt. Az.
15 Dec ? 02:57:18 10° NNE 03:00:43 30° E 03:04:07 10° SSE visible
15 Dec ? 04:31:20 10° N 04:34:52 35° WNW 04:38:23 10° SW visible
15 Dec ? 13:44:43 10° SE 13:48:19 42° ENE 13:51:58 10° N visible
15 Dec ? 15:19:26 10° SSW 15:22:35 25° W 15:25:48 10° NW visible
16 Dec ? 02:43:18 10° NE 02:46:24 22° E 02:49:27 10° SE visible
16 Dec ? 04:17:01 10° N 04:20:43 47° WNW 04:24:25 10° SW visible
16 Dec ? 15:04:49 10° SSW 15:08:16 33° W 15:11:47 10° NNW visible
17 Dec ? 02:29:28 10° NE 02:32:02 17° E 02:34:36 10° SE visible
17 Dec ? 04:02:43 10° N 04:06:33 65° WNW 04:10:21 10° SSW visible
17 Dec ? 14:50:20 10° S 14:54:00 45° W 14:57:42 10° NNW visible
18 Dec ? 02:15:53 10° ENE 02:17:40 13° E 02:19:25 10° ESE visible
18 Dec ? 03:48:29 10° NNE 03:52:21 88° WNW 03:56:11 10° SSW visible
18 Dec ? 14:35:58 10° S 14:39:44 62° WSW 14:43:33 10° NNW visible
19 Dec ? 03:34:17 10° NNE 03:38:08 68° ESE 03:41:56 10° S visible
19 Dec ? 14:21:41 10° SSE 14:25:30 85° WSW 14:29:21 10° NNW visible
19 Dec ? 15:58:49 10° WSW 16:00:14 12° W 16:01:41 10° WNW visible
20 Dec ? 03:20:07 10° NNE 03:23:52 49° E 03:27:35 10° S visible
20 Dec ? 04:54:39 10° N 04:57:45 23° WNW 05:00:49 10° WSW visible
20 Dec ? 14:07:29 10° SSE 14:11:17 70° ENE 14:15:07 10° N visible
20 Dec ? 15:43:28 10° SW 15:45:51 16° W 15:48:14 10° NW visible
21 Dec ? 03:06:01 10° NNE 03:09:35 36° E 03:13:08 10° SSE visible
21 Dec ? 04:40:15 10° N 04:43:38 30° WNW 04:47:00 10° SW visible
21 Dec ? 13:53:24 10° SE 13:57:06 51° ENE 14:00:51 10° N visible
21 Dec ? 15:28:33 10° SW 15:31:29 21° W 15:34:27 10° NW visible
22 Dec ? 02:51:58 10° NE 02:55:16 27° E 02:58:33 10° SSE visible
22 Dec ? 04:25:53 10° N 04:29:30 39° WNW 04:33:05 10° SW visible
22 Dec ? 13:39:23 10° SE 13:42:56 38° ENE 13:46:32 10° N visible
22 Dec ? 15:13:50 10° SSW 15:17:08 27° W 15:20:29 10° NW visible
23 Dec ? 02:38:02 10° NE 02:40:56 20° E 02:43:49 10° SE visible
23 Dec ? 04:11:34 10° N 04:15:20 53° WNW 04:19:04 10° SSW visible
23 Dec ? 14:59:16 10° SSW 15:02:50 37° W 15:06:26 10° NNW visible
24 Dec ? 02:24:15 10° NE 02:26:33 15° E 02:28:51 10° SE visible
24 Dec ? 03:57:17 10° NNE 04:01:08 73° WNW 04:04:57 10° SSW visible
24 Dec ? 14:44:49 10° S 14:48:32 51° W 14:52:18 10° NNW visible
